www.pogodaiklimat.ru

Погода и климат >> Архив погоды >> Россия >> Астраханская область >> Харабали


ПОГОДА в Харабали

  • Прогноз погоды в Харабали
  • Монитор погоды в Харабали

АРХИВ ПОГОДЫ в Харабали

Время (UTC), дата Ветер
(напр.,м/с)
 
Видим.   Явления Облачность Т
(С)
Тd
(С)
f
(%)
Тe
(С)
Тes
(С)
Комфортность P
(гПа)
Po
(гПа)
Тmin
(С)
Tmax
(С)
R
(мм)
R24
(мм)
S
(см)
18 16.08 ЮВ 2 20 км ясно +24.6 +10.9 42 +26 +26 жарко 1012.5 1014.3
21 16.08 В 2 20 км ясно +21.4 +10.3 49 +23 +23 комфорт 1012.6 1014.5
00 17.08 В 3 20 км 3/0
[Ci fib]
+20.3 +8.4 46 +22 +22 комфорт 1011.9 1013.7
03 17.08 В 3 20 км 3/0
[Cs]
+19.5 +10.3 55 +21 +21 комфорт 1011.5 1013.4 +19.2
06 17.08 ЮВ 3 20 км 3/0
[Cs]
+29.3 +10.7 32 +30 +37 жарко 1012.1 1013.9
09 17.08 ЮВ 6-11
{12}
20 км пыльный позёмок 6/0
[Ac cast Cs]
+33.5 +7.1 19 +32 +36 жарко 1011.3 1013.1
12 17.08 ЮВ 5
{13}
20 км 9/4 600 м
[Cb calv Ac cast]
+32.1 +5.7 19 +30 +31 жарко 1011.4 1013.2
15 17.08 ЮВ 2 20 км 8/8 600 м
[Cb calv]
+29.2 +7.0 25 +28 +28 жарко 1011.9 1013.7 +33.9
18 17.08 ЮВ 2 20 км 6/6 600 м
[Cb calv]
+25.0 +11.1 42 +26 +26 жарко 1012.8 1014.7
21 17.08 ЮВ 2 20 км 8/8 600 м
[Cb calv]
+23.5 +12.1 49 +25 +25 комфорт 1012.3 1014.1
00 18.08 СВ 2 20 км 6/6 600 м
[Sc]
+21.2 +12.7 58 +23 +23 комфорт 1012.2 1014.1
03 18.08 В 2 20 км 9/9 600 м
[Sc]
+22.1 +9.4 44 +24 +24 комфорт 1011.8 1013.7 +20.7
06 18.08 ЮВ 2-13
{15}
20 км пыльный позёмок 3/0
[Ac cast Cc]
+24.7 +13.7 50 +27 +30 жарко 1013.0 1014.8
09 18.08 ЮВ 3 20 км 8/0
[Cc]
+32.4 +10.4 26 +32 +42 жарко 1013.1 1014.9
12 18.08 ЮВ 6-13
{15}
20 км пыльный позёмок 3/0
[Ac cast Cc]
+34.8 +4.9 16 +32 +35 жарко 1012.7 1014.5
15 18.08 ЮВ 4
{13}
20 км 5/0
[Ac cast Cc]
+32.1 +6.8 21 +30 +31 жарко 1013.1 1014.9 +35.3
18 18.08 В 1 20 км 5/3 600 м
[Sc diur, vesp Ci fib]
+26.0 +9.5 35 +26 +26 жарко 1014.8 1016.6
21 18.08 В 2 20 км 6/3 600 м
[Cb calv Ac As Ci fib]
+24.8 +7.2 32 +25 +25 комфорт 1014.3 1016.2
00 19.08 СВ 2 20 км 3/3 600 м
[Sc Ci fib]
+23.2 +5.6 32 +24 +24 комфорт 1013.7 1015.6
03 19.08 В 1 20 км 8/5 600 м
[Sc Ac As Cc]
+20.7 +10.3 51 +24 +24 комфорт 1015.1 1017.0 +20.1
06 19.08 ЮВ 3 20 км 8/0
[Ac trans Ci]
+32.4 +7.8 22 +31 +36 жарко 1015.9 1017.7
09 19.08 ЮВ 4 20 км 3/0
[Ci fib]
+36.4 +7.1 17 +34 +44 очень
жарко
1016.0 1017.8
12 19.08 ЮВ 4
{12}
20 км 8/0
[Ac cast Cc]
+37.8 +4.4 13 +35 +39 очень
жарко
1015.8 1017.6
15 19.08 ЮВ 3
{10}
20 км 4/0
[Ac As Ci fib]
+34.1 +8.7 21 +33 +33 жарко 1016.5 1018.3 +38.0
18 19.08 ЮВ 3 20 км ясно +27.3 +9.7 33 +28 +28 жарко 1018.5 1020.3
21 19.08 В 2 20 км ясно +22.6 +12.3 52 +25 +25 комфорт 1018.6 1020.4
00 20.08 В 1 20 км ясно +19.8 +13.0 65 +23 +23 комфорт 1018.1 1020.0
03 20.08 В 1 20 км 3/0
[Ac As]
+20.3 +12.1 59 +23 +24 комфорт 1018.7 1020.6 +18.6
06 20.08 В 2 20 км 1/0
[Ac cast]
+31.5 +12.5 31 +32 +40 жарко 1019.0 1020.8
09 20.08 Ю 3 20 км 1/0
[Ac cast]
+36.1 +8.6 19 +34 +46 очень
жарко
1018.5 1020.3
12 20.08 ЮВ 3 20 км 3/0
[Ac As Cc]
+37.9 +4.1 12 +35 +41 очень
жарко
1017.6 1019.4
15 20.08 ЮВ 3 20 км 6/3 600 м
[Sc Ac As Cs]
+33.9 +7.1 19 +32 +32 жарко 1017.1 1019.0 +38.3
18 20.08 ЮВ 2 20 км 3/0
[Ac As]
+28.7 +8.0 27 +28 +28 жарко 1018.7 1020.6
21 20.08 В 1 20 км 4/4 600 м
[Sc]
+21.5 +11.2 52 +23 +23 комфорт 1018.1 1020.0
00 21.08 штиль 0 20 км 8/8 600 м
[Sc]
+20.5 +12.2 59 +22 +22 комфорт 1017.2 1019.1
03 21.08 штиль 0 20 км 6/0
[Ac As Cs]
+19.6 +11.3 59 +21 +21 комфорт 1018.0 1019.9 +19.3
06 21.08 С 2 20 км 3/0
[Cs]
+32.0 +5.2 19 +30 +38 жарко 1018.0 1019.8
09 21.08 СВ 1 20 км 3/0
[Ci fib]
+36.5 +3.3 13 +33 +49 жарко 1016.8 1018.6
12 21.08 С 2 20 км 1/0
[Ci fib]
+37.8 +2.5 11 +34 +42 очень
жарко
1015.3 1017.1
15 21.08 С 1 20 км 1/0
[Ci fib]
+36.7 +2.7 12 +33 +34 жарко 1014.2 1016.0 +38.2
18 21.08 С 2 20 км ясно +29.9 +3.2 18 +28 +28 жарко 1014.4 1016.3
21 21.08 С 3 20 км ясно +28.3 +8.5 29 +28 +28 жарко 1014.2 1016.1
00 22.08 С 1 20 км ясно +22.6 +9.1 42 +24 +24 комфорт 1013.8 1015.7
03 22.08 СВ 3 20 км ясно +22.4 +9.3 43 +24 +24 комфорт 1014.2 1016.1 +21.6
06 22.08 В 1 20 км ясно +30.9 +7.9 24 +30 +40 жарко 1014.6 1016.4
09 22.08 СВ 2 20 км ясно +36.7 +4.5 14 +34 +48 очень
жарко
1014.2 1016.0
12 22.08 В 3 20 км 1/1 300 м
[Cu hum]
+38.3 +3.3 11 +35 +41 очень
жарко
1013.3 1015.0
15 22.08 ЮЗ 1 20 км ясно +34.9 +10.4 23 +34 +34 очень
жарко
1012.8 1014.6 +38.7
18 22.08 С 3 20 км ясно +32.6 +6.4 20 +31 +31 жарко 1014.0 1015.8
21 22.08 В 2 20 км ясно +28.2 +7.1 26 +27 +27 жарко 1014.9 1016.8
00 23.08 СВ 3 20 км ясно +24.0 +7.8 35 +24 +24 комфорт 1015.1 1017.0
03 23.08 СВ 3 20 км 3/0
[Cs]
+23.6 +8.8 39 +24 +25 комфорт 1015.9 1017.8 +22.7
06 23.08 В 3 20 км 1/0
[Cs]
+32.5 +7.7 21 +31 +38 жарко 1016.4 1018.2
09 23.08 В 3 20 км 1/0
[Cs]
+37.4 +5.7 14 +35 +46 очень
жарко
1015.6 1017.4
12 23.08 СВ 2 20 км 3/1 300 м
[Cu hum Cs]
+39.0 +4.3 12 +36 +42 очень
жарко
1014.4 1016.2
15 23.08 СВ 3 20 км 8/5 600 м
[Cb calv Cs]
+37.5 +4.0 13 +35 +35 очень
жарко
1014.1 1015.9 +39.5

 

Местоположение метеостанции Харабали (Астраханская область, Россия): широта 47.40 долгота 47.25 высота над уровнем моря -17 м.

В архиве по умолчанию представлена погода в Харабали за последнюю неделю. Архивные данные за месяц целиком и за предыдущие месяцы, начиная с января 2011 года, Вы можете получить, выбрав интересующий диапазон дат из раскрывающегося списка и нажав кнопку "Ввод!".


*Определитесь, кто Вы:
робот инопланетянин человек

Внимание! Время в таблицах - всемирное. Для получения местного времени необходимо прибавить поправку, которая равна 4 ч.

Смотрите также архив погоды в соседних городах и на ближайших метеорологических станциях:

Погода в Досанге (Астраханская область, Россия) (74 км)
Погода в Юсте (Калмыкия, Россия) (76 км)
Погода в Верхнем Баскунчаке (Астраханская область, Россия) (99 км)
Погода в Черный Яр (Астраханская область, Россия) (113 км)
Погода в Жанауштогане (Атырауская область, Казахстан) (129 км)
Погода в Астрахани (Астраханская область, Россия) (136 км)
Погода в Утте (Калмыкия, Россия) (148 км)
Погода в Урде (Западно-Казахстанская область, Казахстан) (153 км)
Погода в Зеленге (Астраханская область, Россия) (171 км)
Погода в Ганюшкино (Атырауская область, Казахстан) (177 км)

Пояснения к столбцам:

Ветер - указаны скорость ветра в м/с - средняя за 10 мин, порывы в срок и между сроками (в фигурных скобках) и направление, откуда дует ветер: С - северный, СВ - северо-восточный, В - восточный, ЮВ - юго-восточный, Ю - южный, ЮЗ - юго-западный, З - западный, СЗ - северо-западный.
Видимость - горизонтальная дальность видимости в метрах или километрах. При видимости от 1 до 10 км при отсутствии осадков обычно наблюдается дымка, при ухудшении видимости до 1 км и менее - туман. В сухую погоду видимость может ухудшаться дымом, пылью или мглою.
Явления - указаны атмосферные явления, наблюдавшиеся в срок или в последний час перед сроком; фигурными скобками обозначены явления, наблюдавшиеся между сроками (за 1-3 часа до срока); квадратными скобками обозначены град или гололедные отложения с указанием их диаметра в мм.
Облачность - указаны через наклонную черту общая и нижняя облачность в баллах и высота нижней границы облаков в метрах; квадратными скобками обозначены формы облаков: Ci - перистые, Cs - перисто-слоистые, Cc - перисто-кучевые, Ac - высококучевые, As - высокослоистые, Sc - слоисто-кучевые, Ns - слоисто-дождевые, Cu - кучевые, Cb - кучево-дождевые. Подробнее классификацию облаков см. в Атласе облаков (PDF).
T - Температура воздуха - температура, измеренная на высоте 2 м над землей.
Td - Температура точки росы - температура, при понижении до которой содержащийся в воздухе водяной пар достигнет насыщения.
f - Относительная влажность воздуха - влажноcть воздуха, измеренная на высоте 2 м над землей.
Te - Эффективная температура - температура, которую ощущает одетый по сезону человек в тени. Характеристика душности погоды. При расчете учитывается влияние влажности воздуха и скорости ветра на теплоощущения человека.
Tes - Эффективная температура на солнце - температура, которую ощущает человек, с поправкой на солнечный нагрев. Характеристика знойности погоды. Зависит от высоты солнца над горизонтом, облачности и скорости ветра. Ночью, в пасмурную погоду, а также при ветре 12 м/с и более поправка равна нулю.
P - Атмосферное давление - приведенное к уровню моря атмосферное давление.
Po - Атмосферное давление - измеренное на уровне метеостанции атмосферное давление.
Tmin - Минимальная температура - минимум температуры воздуха на высоте 2 м над землей.
Tmax - Максимальная температура - максимум температуры воздуха на высоте 2 м над землей.
R - Количество осадков - Количество выпавших осадков за период времени, мм. При наведении курсора мыши на число - период времени, за который выпало указанное количество осадков.
R24 - Количество осадков - Количество выпавших осадков за 24 часа, мм.
S - Снежный покров - Высота снежного покрова, см. При наведении курсора мыши на число - состояние снежного покрова и степень покрытия местности в баллах.